Погода в Джимете

Нигерия     9°16′00″N   12°26′51″E
темп.,
°C
ветер,
м/с
пор.,
м/с
влажн.,
%
обл.,
%
осадки,
мм/ч
давл.,
гПа
погр.,
м
22 апреля, чт
чт2201:00+30з223684 0.0 100527
04:00+28сз234511 0.0 100739
07:00+29зсз3849100 0.0 1009401
10:00+36з553248 0.0 10091440
13:00+41зсз542223 0.0 10063082
16:00+41зсз332093 0.0 10023474
19:00+35сз353084 0.1 1004141
22:00+32юз4841100 0.4 1006219
23 апреля, пт
пт2301:00+28юв1153100 0.4 100649
04:00+28з235598 0.0 1007151
07:00+28зюз235571 0.1 1008252
10:00+35зюз463519 0.0 10091289
13:00+40з33235 0.0 10053274
16:00+37юз232730 0.4 1001601
19:00+33юз3737100 0.4 1004182
22:00+31ю3545100 0.1 1006187
24 апреля, сб
сб2401:00+28юз2356100 0.2 1006123
04:00+27з245848 0.0 1006154
07:00+28зюз125676 0.0 1008173
10:00+34з333678 0.0 10081245
13:00+39з322552 0.0 10042614
16:00+40сз7422100 0.0 10013080
19:00+35сз363233 0.0 1003180
22:00+33ююв223797 0.1 100660
25 апреля, вс
вс2501:00+25зюз71279100 4.5 1007420
04:00+27ю2466100 1.3 1008354
07:00+28ююз136147 1.3 1009292
10:00+33юз5642100 0.0 10101092
13:00+36юз3433100 0.0 10071817
16:00+36ююз4334100 0.1 10051257
19:00+32ююз254361 0.4 1005159
22:00+29ю2252100 1.1 100979
26 апреля, пн
пн2601:00+29ююз235497 1.3 100760
04:00+27зсз236072 0.0 100768
07:00+28юз125995 0.0 1008138
10:00+35з233774 0.0 10091079
13:00+39зсз222559 0.0 10062225
16:00+41ссз242075 0.0 10023074
19:00+37зсз112471 0.0 100319
22:00+35ссз3529100 0.0 1005174